Location: Unspecified
(0.0000°N, 0.0000°E)
Time: 13:52:42
(UTC+00:00)

Explorer 11/Cluster Stage 4 - Visible Passes

Search period start: 02 February 2023 00:00
Search period end: 12 February 2023 00:00
Orbit: 466 x 1244 km, 28.8° (Epoch: 01 February)

Date Brightness Start Highest point End Pass type
(mag) Time Alt. Az. Time Alt. Az. Time Alt. Az.
02 Feb 9.7 03:18:20 10° NE 03:18:20 10° NE 03:18:23 10° NE visible
02 Feb 9.1 05:00:19 12° NNW 05:01:34 13° NNW 05:04:52 10° N visible
03 Feb 9.2 04:48:09 11° NNW 04:48:23 11° NNW 04:50:26 10° N visible
11 Feb 7.9 19:32:04 10° S 19:33:27 12° SSE 19:33:27 12° SSE visible
